CST,Max TemperatureF,Mean TemperatureF,Min TemperatureF,Max Dew PointF,MeanDew PointF,Min DewpointF,Max Humidity, Mean Humidity, Min Humidity, Max Sea Level PressureIn, Mean Sea Level PressureIn, Min Sea Level PressureIn, Max VisibilityMiles, Mean VisibilityMiles, Min VisibilityMiles, Max Wind SpeedMPH, Mean Wind SpeedMPH, Max Gust SpeedMPH,PrecipitationIn, CloudCover, Events, WindDirDegrees
2011-11-1,51,46,42,37,31,25,76,56,40,30.03,29.89,29.81,10,10,10,15,9,20,0.00,3,Rain,299
2011-11-2,46,39,30,30,25,19,80,57,34,30.28,30.22,30.11,10,10,10,18,8,23,0.00,1,,320
2011-11-3,51,38,24,28,19,12,93,58,21,30.30,30.25,30.19,10,10,2,10,5,,0.00,0,,216
2011-11-4,55,40,26,25,18,12,69,45,18,30.19,30.09,29.95,10,10,10,25,13,33,0.00,0,,161
2011-11-5,55,46,37,39,34,28,87,62,41,29.93,29.72,29.55,10,10,7,31,22,41,0.00,1,,149
2011-11-6,46,42,39,41,34,21,87,68,43,29.77,29.57,29.46,10,9,5,30,20,39,0.00,6,Rain,194
2011-11-7,44,37,30,25,21,14,69,55,41,30.20,30.08,29.92,10,10,10,21,15,26,0.00,0,,254
2011-11-8,48,36,24,28,21,16,93,60,27,30.21,30.18,30.14,10,9,0,6,1,,0.00,0,Fog,78
2011-11-9,41,32,24,25,21,18,86,61,42,30.15,30.09,30.04,10,10,10,29,10,37,0.00,2,,279
2011-11-10,37,32,26,25,21,18,80,66,48,30.10,30.04,29.95,10,10,10,23,16,31,0.00,4,Snow,285
2011-11-11,53,40,28,21,19,12,60,44,26,29.86,29.62,29.52,10,10,10,16,10,22,0.00,1,,201
2011-11-12,62,45,28,28,20,14,69,44,16,29.53,29.37,29.17,10,10,10,18,8,26,0.00,0,,164
2011-11-13,41,36,30,30,26,21,87,70,52,29.38,29.28,29.14,10,10,5,21,9,25,0.00,3,,265
2011-11-14,48,38,28,28,23,18,75,60,32,29.56,29.43,29.37,10,10,10,24,11,31,0.00,1,,245
2011-11-15,42,35,26,28,22,12,93,62,42,29.88,29.64,29.50,10,10,4,29,10,37,0.00,5,Snow,270
2011-11-16,28,24,19,16,12,9,80,59,43,30.13,30.03,29.92,10,10,10,26,16,33,0.00,5,,272
2011-11-17,28,18,8,10,6,1,92,60,31,30.15,30.06,29.82,10,10,10,16,8,20,0.00,2,,217
2011-11-18,37,30,23,21,18,10,74,58,47,29.71,29.62,29.58,10,10,7,14,7,,0.00,2,,63
2011-11-19,26,22,17,18,16,12,86,79,68,30.11,29.87,29.76,10,6,0,21,15,26,0.00,7,Snow,351
2011-11-20,19,12,5,9,5,0,85,76,58,30.35,30.27,30.19,10,10,10,10,5,,0.00,1,,59
2011-11-21,33,20,8,27,15,3,93,82,60,30.24,30.18,30.14,10,9,3,13,5,,0.00,1,,148
2011-11-22,37,34,30,32,30,27,93,87,75,30.15,30.06,30.01,7,4,2,13,7,,0.00,7,,157
2011-11-23,44,35,26,36,30,25,93,85,66,30.04,29.99,29.90,10,5,1,13,8,,0.00,0,,189
2011-11-24,53,43,33,37,31,28,81,71,50,29.89,29.76,29.66,10,9,5,13,8,,0.00,0,,167
2011-11-25,42,38,33,37,35,30,93,87,81,29.67,29.63,29.59,10,6,2,14,5,10,0.00,0,,53
2011-11-26,41,36,32,37,32,25,93,86,70,30.12,29.88,29.63,10,5,0,26,14,34,0.00,8,Fog-Snow,307
2011-11-27,30,26,21,21,21,19,93,72,64,30.24,30.19,30.14,10,10,10,25,16,33,0.00,7,,331
2011-11-28,44,32,21,28,21,18,93,69,39,30.21,30.05,29.96,10,10,10,17,10,26,0.00,0,,212
2011-11-29,37,27,17,23,15,10,75,59,35,30.37,30.27,30.11,10,10,10,13,8,17,0.00,0,,270
2011-11-30,37,29,21,27,18,12,86,60,45,30.03,29.91,29.85,10,10,7,15,6,18,0.00,3,Snow,236